FW5380 Weather Reports


Display with metric or nautical units.
time (UTC)temp
F
wind
direction
speed
MPH
gust
MPH
rain 1hr
in
rain 24hr
in
rain mn
in
humidity
%
barometer
mb
20260905193035 65 5 3.0 8.0 0.00 0.01 0.00 61 1020.6
20260905191537 64 32 3.0 10.0 0.00 0.01 0.00 62 1020.8
20260905184534 62 37 2.0 6.0 0.00 0.01 0.00 66 1021.2
20260905183040 62 20 2.0 5.0 0.00 0.01 0.00 67 1021.4
20260905181540 61 40 2.0 5.0 0.00 0.01 0.00 69 1021.5
20260905180037 60 24 2.0 6.0 0.00 0.01 0.00 70 1021.5
20260905174538 61 30 2.0 6.0 0.00 0.01 0.00 70 1021.5
20260905173035 62 42 1.0 5.0 0.00 0.01 0.00 70 1021.4
20260905171538 61 1 1.0 5.0 0.00 0.01 0.00 73 1021.4
20260905170034 59 328 0.0 4.0 0.00 0.01 0.00 77 1021.4
20260905164537 57 50 1.0 4.0 0.00 0.01 0.00 83 1021.3
20260905161534 55 2 0.0 2.0 0.00 0.01 0.00 88 1021.3
20260905154541 53 270 0.0 2.0 0.00 0.01 0.00 93 1021.3
20260905153039 50 202 0.0 2.0 0.00 0.01 0.00 94 1021.3
20260905151536 49 202 0.0 0.0 0.00 0.01 0.00 94 1021.2
20260905150037 48 201 0.0 2.0 0.00 0.01 0.00 94 1021.3
20260905144539 47 194 0.0 3.0 0.00 0.01 0.00 94 1021.2
20260905143035 47 251 0.0 3.0 0.00 0.01 0.00 94 1021.1
20260905141533 45 185 2.0 6.0 0.00 0.01 0.00 94 1020.9
20260905140032 45 223 0.0 1.0 0.00 0.01 0.00 93 1020.8
20260905134535 44 180 0.0 4.0 0.00 0.01 0.00 93 1020.7
20260905133033 45 177 0.0 4.0 0.00 0.01 0.00 93 1020.5
20260905130036 45 170 0.0 1.0 0.00 0.01 0.00 93 1020.4
20260905124537 46 180 0.0 5.0 0.00 0.01 0.00 93 1020.3
20260905123037 46 173 3.0 6.0 0.00 0.01 0.00 92 1020.3
20260905120038 47 180 0.0 0.0 0.00 0.01 0.00 91 1020.4
20260905111537 48 333 0.0 2.0 0.00 0.01 0.00 91 1020.3
20260905110037 48 182 1.0 3.0 0.00 0.01 0.00 90 1020.2
20260905103037 48 175 0.0 3.0 0.00 0.01 0.00 89 1020.2
20260905101536 49 142 0.0 2.0 0.00 0.01 0.00 89 1020.2
20260905100038 50 127 0.0 3.0 0.00 0.01 0.00 89 1020.3
20260905093038 51 201 0.0 3.0 0.00 0.01 0.00 88 1020.2
20260905091536 51 198 0.0 3.0 0.00 0.01 0.00 88 1020.1
20260905090036 51 179 2.0 4.0 0.00 0.01 0.00 89 1020.1
20260905084535 50 175 2.0 4.0 0.00 0.01 0.00 90 1020.0
20260905083036 49 172 0.0 3.0 0.00 0.01 0.00 90 1020.0
20260905081536 48 157 0.0 1.0 0.00 0.01 0.00 90 1019.9
20260905080034 48 164 1.0 3.0 0.00 0.01 0.00 90 1019.8
20260905074536 49 180 2.0 3.0 0.00 0.01 0.00 89 1019.7
20260905073031 49 180 0.0 3.0 0.00 0.01 0.00 89 1019.7
20260905071608 49 180 0.0 2.0 0.00 0.01 0.00 89 1019.4
20260905063030 49 180 3.0 4.0 0.00 0.01 0.01 87 1019.1
20260905061605 49 180 2.0 4.0 0.00 0.01 0.01 86 1019.1
20260905060148 50 180 1.0 3.0 0.00 0.01 0.01 86 1019.1
20260905054529 50 178 2.0 4.0 0.00 0.01 0.01 85 1019.2
20260905053105 51 181 3.0 4.0 0.00 0.01 0.01 83 1019.1
20260905051606 52 180 0.0 3.0 0.00 0.01 0.01 83 1019.0
20260905050030 53 182 2.0 4.0 0.00 0.01 0.01 83 1019.0
20260905044531 53 189 3.0 4.0 0.00 0.01 0.01 82 1018.9
20260905043145 54 224 3.0 6.0 0.00 0.01 0.01 81 1018.8
20260905041530 54 177 0.0 3.0 0.00 0.01 0.01 80 1019.0
20260905040031 53 174 0.0 3.0 0.00 0.01 0.01 79 1018.9
20260905034533 53 180 1.0 4.0 0.00 0.01 0.01 75 1018.7
20260905033030 56 179 2.0 4.0 0.00 0.01 0.01 69 1018.4
20260905031529 58 12 0.0 5.0 0.00 0.01 0.01 66 1018.3
20260905024530 59 338 3.0 7.0 0.00 0.01 0.01 64 1018.1
20260905021531 61 333 5.0 7.0 0.00 0.01 0.01 62 1018.0
20260905020031 62 337 5.0 9.0 0.00 0.01 0.01 61 1017.9
20260905014532 63 333 4.0 10.0 0.00 0.01 0.01 60 1017.6
20260905013029 63 334 6.0 11.0 0.00 0.01 0.01 60 1017.4
20260905011606 62 313 3.0 11.0 0.00 0.01 0.01 60 1017.3
20260905010030 64 319 4.0 9.0 0.00 0.01 0.01 56 1017.2
20260905003033 66 329 6.0 11.0 0.00 0.01 0.01 53 1016.9
20260905001530 66 318 6.0 11.0 0.00 0.01 0.01 53 1016.8
20260905000145 65 312 4.0 9.0 0.00 0.01 0.01 54 1016.8
20260904234531 65 292 4.0 9.0 0.00 0.01 0.01 56 1016.8
20260904233029 64 271 4.0 9.0 0.00 0.01 0.01 61 1016.9
20260904231532 60 263 5.0 11.0 0.00 0.01 0.01 67 1017.0
20260904230030 59 229 4.0 11.0 0.01 0.01 0.01 69 1017.2
20260904221532 66 338 3.0 8.0 0.01 0.01 0.00 48 1016.5
20260904220031 68 336 4.0 12.0 0.00 0.00 0.00 46 1016.4
20260904214533 69 259 3.0 9.0 0.00 0.00 0.00 46 1016.4
20260904213030 67 342 2.0 9.0 0.00 0.00 0.00 48 1016.3
20260904211533 67 19 4.0 8.0 0.00 0.00 0.00 48 1016.4
20260904204609 67 11 4.0 10.0 0.00 0.00 0.00 49 1016.5
20260904201529 67 360 2.0 7.0 0.00 0.00 0.00 49 1016.6
20260904200029 67 354 3.0 6.0 0.00 0.00 0.00 49 1016.7
20260904194530 68 15 3.0 10.0 0.00 0.00 0.00 50 1016.7